Location: Pulvis Stellarum Observatory
(41.6962°N, 71.4263°W)
Time: 19:35:57
(UTC-04:00)

Cosmos 1758 - Visible Passes

Search period start: 22 August 2014 00:00
Search period end: 01 September 2014 00:00
Orbit: 551 x 575 km, 82.5° (Epoch: 21 August)

Date Brightness Start Highest point End Pass type
(mag) Time Alt. Az. Time Alt. Az. Time Alt. Az.
22 Aug 6.4 00:11:01 13° N 00:11:01 13° N 00:11:28 10° N visible
23 Aug 6.4 00:10:48 13° N 00:10:48 13° N 00:11:15 10° N visible
24 Aug 6.5 00:10:35 13° N 00:10:35 13° N 00:11:00 10° N visible
25 Aug 6.5 00:10:21 12° N 00:10:21 12° N 00:10:43 10° N visible
26 Aug 6.6 00:10:06 12° N 00:10:06 12° N 00:10:25 10° N visible
27 Aug 6.6 00:09:51 11° NNW 00:09:51 11° NNW 00:10:05 10° NNW visible
28 Aug 6.7 00:09:35 11° NNW 00:09:35 11° NNW 00:09:42 10° NNW visible
31 Aug 6.2 22:32:25 11° NNE 22:32:25 11° NNE 22:32:35 10° NNE visible
